Radioactive Concentration measured by Seawater Radiation Monitor near Fukushima Daiichi Nuclear Power Station
Date,Time,Cs137(Bq/L),Cs134(Bq/L),Total β(Bq/L)
2017/08/09,00:00,0.82,ND,ND
2017/08/09,00:10,0.74,0.037,ND
2017/08/09,00:20,0.74,0.036,ND
2017/08/09,00:30,0.78,ND,ND
2017/08/09,00:40,0.72,0.033,ND
2017/08/09,00:50,0.70,0.036,ND
2017/08/09,01:00,0.69,0.032,ND
2017/08/09,01:10,0.73,ND,ND
2017/08/09,01:20,0.74,ND,ND
2017/08/09,01:30,0.70,0.044,ND
2017/08/09,01:40,0.71,0.059,ND
2017/08/09,01:50,0.74,0.056,ND
2017/08/09,02:00,0.78,0.059,ND
2017/08/09,02:10,0.83,0.051,ND
2017/08/09,02:20,0.89,0.038,ND
2017/08/09,02:30,0.92,0.034,ND
2017/08/09,02:40,0.93,0.040,ND
2017/08/09,02:50,0.94,0.043,ND
2017/08/09,03:00,0.93,ND,ND
2017/08/09,03:10,1.0,ND,ND
2017/08/09,03:20,0.91,0.063,ND
2017/08/09,03:30,0.86,0.061,ND
2017/08/09,03:40,0.80,0.056,ND
2017/08/09,03:50,0.71,0.054,ND
2017/08/09,04:00,0.61,0.039,ND
2017/08/09,04:10,0.57,ND,ND
2017/08/09,04:20,0.50,ND,ND
2017/08/09,04:30,0.43,ND,ND
2017/08/09,04:40,0.35,ND,ND
2017/08/09,04:50,0.33,ND,ND
2017/08/09,05:00,0.34,ND,ND
2017/08/09,05:10,0.35,ND,ND
2017/08/09,05:20,0.36,ND,ND
2017/08/09,05:30,0.36,ND,ND
2017/08/09,05:40,0.36,ND,ND
2017/08/09,05:50,0.39,ND,ND
2017/08/09,06:00,0.38,ND,ND
2017/08/09,06:10,0.36,ND,ND
2017/08/09,06:20,0.35,ND,ND
2017/08/09,06:30,0.31,ND,ND
2017/08/09,06:40,0.28,ND,ND
2017/08/09,06:50,0.31,ND,ND
2017/08/09,07:00,0.31,ND,ND
2017/08/09,07:10,0.38,ND,ND
2017/08/09,07:20,0.30,ND,ND
2017/08/09,07:30,0.30,ND,ND
2017/08/09,07:40,0.31,ND,ND
2017/08/09,07:50,0.30,ND,ND
2017/08/09,08:00,0.36,ND,ND
2017/08/09,08:10,0.39,ND,ND
2017/08/09,08:20,0.41,ND,ND
2017/08/09,08:30,0.39,ND,ND
2017/08/09,08:40,0.45,ND,ND
2017/08/09,08:50,0.53,ND,ND
2017/08/09,09:00,0.62,ND,ND
2017/08/09,09:10,0.65,0.030,ND
2017/08/09,09:20,0.73,0.037,ND
2017/08/09,09:30,0.83,0.047,ND
2017/08/09,09:40,0.91,0.044,ND
2017/08/09,09:50,0.93,0.050,ND
2017/08/09,10:00,0.94,0.053,ND
2017/08/09,10:10,0.99,0.045,ND
2017/08/09,10:20,0.99,0.044,ND
2017/08/09,10:30,0.99,0.036,ND
2017/08/09,10:40,0.96,0.042,ND
2017/08/09,10:50,0.97,0.034,ND
2017/08/09,11:00,0.96,0.040,ND
2017/08/09,11:10,0.96,0.044,ND
2017/08/09,11:20,0.96,0.049,ND
2017/08/09,11:30,0.95,0.043,ND
2017/08/09,11:40,0.98,0.033,ND
2017/08/09,11:50,0.96,0.036,ND
2017/08/09,12:00,0.94,0.037,ND
2017/08/09,12:10,0.92,0.036,ND
2017/08/09,12:20,0.93,0.040,ND
2017/08/09,12:30,0.88,0.045,ND
2017/08/09,12:40,0.92,0.040,ND
2017/08/09,12:50,0.88,0.049,ND
2017/08/09,13:00,0.88,0.053,ND
2017/08/09,13:10,0.81,0.049,ND
2017/08/09,13:20,0.81,0.032,ND
2017/08/09,13:30,0.79,0.054,ND
2017/08/09,13:40,0.79,ND,ND
2017/08/09,13:50,0.78,ND,ND
2017/08/09,14:00,0.73,ND,ND
2017/08/09,14:10,0.70,ND,ND
2017/08/09,14:20,0.70,ND,ND
2017/08/09,14:30,0.58,ND,ND
2017/08/09,14:40,0.50,ND,ND
2017/08/09,14:50,0.43,ND,ND
2017/08/09,15:00,0.39,0.037,ND
2017/08/09,15:10,0.40,ND,ND
2017/08/09,15:20,0.31,ND,ND
2017/08/09,15:30,0.30,ND,ND
2017/08/09,15:40,0.30,ND,ND
2017/08/09,15:50,0.29,ND,ND
2017/08/09,16:00,0.28,ND,ND
2017/08/09,16:10,0.29,ND,ND
2017/08/09,16:20,0.32,ND,ND
2017/08/09,16:30,0.32,ND,ND
2017/08/09,16:40,0.32,ND,ND
2017/08/09,16:50,0.31,ND,ND
2017/08/09,17:00,0.26,ND,ND
2017/08/09,17:10,0.24,ND,ND
2017/08/09,17:20,0.25,ND,ND
2017/08/09,17:30,0.25,ND,ND
2017/08/09,17:40,0.25,ND,ND
2017/08/09,17:50,0.25,ND,ND
2017/08/09,18:00,0.30,ND,ND
2017/08/09,18:10,0.30,ND,ND
2017/08/09,18:20,0.29,ND,ND
2017/08/09,18:30,0.29,ND,ND
2017/08/09,18:40,0.29,ND,ND
2017/08/09,18:50,0.26,ND,ND
2017/08/09,19:00,0.24,ND,ND
2017/08/09,19:10,0.25,ND,ND
2017/08/09,19:20,0.31,ND,ND
2017/08/09,19:30,0.26,ND,ND
2017/08/09,19:40,0.27,ND,ND
2017/08/09,19:50,0.32,ND,ND
2017/08/09,20:00,0.32,ND,ND
2017/08/09,20:10,0.29,ND,ND
2017/08/09,20:20,0.28,ND,ND
2017/08/09,20:30,0.34,ND,ND
2017/08/09,20:40,0.33,ND,ND
2017/08/09,20:50,0.35,ND,ND
2017/08/09,21:00,0.35,ND,ND
2017/08/09,21:10,0.35,ND,ND
2017/08/09,21:20,0.36,ND,ND
2017/08/09,21:30,0.31,ND,ND
2017/08/09,21:40,0.33,ND,ND
2017/08/09,21:50,0.36,ND,ND
2017/08/09,22:00,0.33,ND,ND
2017/08/09,22:10,0.32,ND,ND
2017/08/09,22:20,0.31,ND,ND
2017/08/09,22:30,0.31,ND,ND
2017/08/09,22:40,0.30,ND,ND
2017/08/09,22:50,0.30,ND,ND
2017/08/09,23:00,0.32,ND,ND
2017/08/09,23:10,0.33,ND,ND
2017/08/09,23:20,0.30,ND,ND
2017/08/09,23:30,0.30,ND,ND
2017/08/09,23:40,0.30,ND,ND
2017/08/09,23:50,0.29,ND,11
